HK6RM-18 Weather Reports


Display with metric or nautical units.
time (UTC)temp
F
wind
direction
speed
MPH
gust
MPH
rain 1hr
in
rain 24hr
in
rain mn
in
humidity
%
barometer
mb
20260507051400 57 102 5.0 1.0 0.00 0.00 0.00 75 1017.0
20260507045859 58 102 5.0 1.0 0.00 0.00 0.00 75 1017.0
20260507044356 59 102 5.0 2.0 0.00 0.00 0.00 75 1017.0
20260507042856 57 105 5.0 1.0 0.00 0.00 0.00 75 1017.0
20260507041355 58 105 5.0 2.0 0.00 0.00 0.00 75 1017.0
20260507035855 57 80 4.0 0.0 0.00 0.00 0.00 76 1017.0
20260507034354 58 80 4.0 0.0 0.00 0.00 0.00 76 1017.0
20260507032849 59 80 4.0 0.0 0.00 0.00 0.00 76 1017.0
20260507031348 60 80 4.0 0.0 0.00 0.00 0.00 76 1017.0
20260507025848 62 80 4.0 0.0 0.00 0.00 0.00 76 1017.0
20260507024347 64 80 4.0 0.0 0.00 0.00 0.00 77 1017.0
20260507022846 67 80 4.0 0.0 0.00 0.00 0.00 78 1016.0
20260507021344 69 80 4.0 0.0 0.00 0.00 0.00 81 1016.0
20260507015842 58 106 5.0 3.0 0.00 0.00 0.00 72 1016.0
20260507014340 59 106 6.0 3.0 0.00 0.00 0.00 72 1016.0
20260507012839 71 90 3.0 0.0 0.00 0.00 0.00 81 1015.0
20260507011339 71 90 3.0 0.0 0.00 0.00 0.00 81 1015.0
20260507005838 59 108 5.0 1.0 0.00 0.00 0.00 72 1015.0
20260507004337 60 108 6.0 2.0 0.00 0.00 0.00 72 1015.0
20260507002836 60 290 5.0 0.0 0.00 0.00 0.00 71 1014.0
20260507001334 61 290 5.0 0.0 0.00 0.00 0.00 71 1014.0
20260506235834 62 290 5.0 0.0 0.00 0.00 0.00 71 1014.0
20260506234333 63 290 5.0 0.0 0.00 0.00 0.00 71 1013.0
20260506232833 64 290 5.0 0.0 0.00 0.00 0.00 71 1012.0
20260506231329 65 290 5.0 0.0 0.00 0.00 0.00 71 1012.0
20260506225828 66 290 5.0 0.0 0.00 0.00 0.00 71 1012.0
20260506224328 67 290 5.0 0.0 0.00 0.00 0.00 71 1012.0
20260506222827 68 290 5.0 0.0 0.00 0.00 0.00 71 1011.0
20260506221326 69 290 5.0 0.0 0.00 0.00 0.00 70 1010.0
20260506215825 70 290 5.0 0.0 0.00 0.00 0.00 70 1010.0
20260506214324 72 290 5.0 0.0 0.00 0.00 0.00 70 1010.0
20260506212822 74 290 6.0 0.0 0.00 0.00 0.00 69 1010.0
20260506205701 72 280 8.0 0.0 0.00 0.00 0.00 69 1010.0
20260506204201 73 280 8.0 0.0 0.00 0.00 0.00 69 1010.0
20260506202659 74 280 8.0 0.0 0.00 0.00 0.00 69 1010.0
20260506201158 75 280 8.0 0.0 0.00 0.00 0.00 68 1010.0
20260506195655 76 280 8.0 0.0 0.00 0.00 0.00 68 1010.0
20260506194154 77 280 8.0 0.0 0.00 0.00 0.00 68 1010.0
20260506192653 75 280 8.0 0.0 0.00 0.00 0.00 68 1011.0
20260506191151 76 280 8.0 0.0 0.00 0.00 0.00 68 1010.0
20260506185650 77 320 8.0 0.0 0.00 0.00 0.00 68 1010.0
20260506184150 78 320 8.0 0.0 0.00 0.00 0.00 68 1011.0
20260506182649 79 320 8.0 0.0 0.00 0.00 0.00 68 1012.0
20260506181149 74 320 8.0 0.0 0.00 0.00 0.00 74 1012.0
20260506175648 74 290 8.0 0.0 0.00 0.00 0.00 76 1012.0
20260506174146 73 290 8.0 0.0 0.00 0.00 0.00 76 1012.0
20260506172646 74 290 8.0 0.0 0.00 0.00 0.00 76 1013.0
20260506171145 73 290 8.0 0.0 0.00 0.00 0.00 77 1013.0
20260506165645 74 300 8.0 0.0 0.00 0.00 0.00 77 1013.0
20260506164144 73 300 8.0 0.0 0.00 0.00 0.00 76 1013.0
20260506162644 74 300 8.0 0.0 0.00 0.00 0.00 76 1014.0
20260506161143 73 300 8.0 0.0 0.00 0.00 0.00 75 1014.0
20260506155641 73 285 5.0 3.0 0.00 0.00 0.00 73 1014.0
20260506154141 73 285 5.0 3.0 0.00 0.00 0.00 73 1014.0
20260506152640 71 0 1.0 0.0 0.00 0.00 0.00 76 1015.0
20260506151138 72 0 1.0 0.0 0.00 0.00 0.00 75 1015.0
20260506145635 73 0 2.0 0.0 0.00 0.00 0.00 74 1015.0
20260506144133 74 0 2.0 0.0 0.00 0.00 0.00 76 1016.0
20260506142632 68 130 3.0 0.0 0.00 0.00 0.00 83 1017.0
20260506141128 69 130 3.0 0.0 0.00 0.00 0.00 83 1016.0
20260506135627 70 130 3.0 0.0 0.00 0.00 0.00 82 1016.0
20260506134125 66 130 3.0 0.0 0.00 0.00 0.00 83 1016.0
20260506132624 67 130 3.0 0.0 0.00 0.00 0.00 82 1017.0
20260506131123 68 130 3.0 0.0 0.00 0.00 0.00 82 1017.0
20260506125622 69 80 3.0 0.0 0.00 0.00 0.00 82 1017.0
20260506124121 70 80 3.0 0.0 0.00 0.00 0.00 82 1017.0
20260506122621 62 0 1.0 0.0 0.00 0.00 0.00 93 1017.0
20260506121120 63 0 1.0 0.0 0.00 0.00 0.00 93 1017.0
20260506115618 64 0 2.0 0.0 0.00 0.00 0.00 93 1017.0
20260506114118 65 0 2.0 0.0 0.00 0.00 0.00 92 1017.0
20260506112617 58 90 4.0 0.0 0.00 0.00 0.00 92 1016.0
20260506111116 59 90 4.0 0.0 0.00 0.00 0.00 92 1016.0
20260506105615 60 90 4.0 0.0 0.00 0.00 0.00 92 1016.0
20260506104114 62 90 4.0 0.0 0.00 0.00 0.00 92 1016.0
20260506102612 64 90 4.0 0.0 0.00 0.00 0.00 92 1016.0
20260506101111 56 100 3.0 0.0 0.00 0.00 0.00 91 1015.0
20260506095611 57 100 3.0 0.0 0.00 0.00 0.00 91 1015.0
20260506094110 58 100 3.0 0.0 0.00 0.00 0.00 91 1015.0
20260506092608 59 100 3.0 0.0 0.00 0.00 0.00 91 1015.0
20260506091106 60 100 3.0 0.0 0.00 0.00 0.00 91 1015.0
20260506085605 61 100 3.0 0.0 0.00 0.00 0.00 91 1015.0
20260506084105 62 100 3.0 0.0 0.00 0.00 0.00 91 1015.0
20260506082604 63 100 3.0 0.0 0.00 0.00 0.00 91 1015.0
20260506081103 64 100 3.0 0.0 0.00 0.00 0.00 90 1015.0
20260506072601 66 100 3.0 0.0 0.00 0.00 0.00 91 1015.0
20260506071100 63 104 4.0 1.0 0.00 0.00 0.00 91 1015.0
20260506061054 59 102 5.0 2.0 0.00 0.00 0.00 86 1016.0